FW3963 Weather Reports


time (UTC)temp
F
wind
direction
speed
knots
gust
knots
rain 1hr
in
rain 24hr
in
rain mn
in
humidity
%
barometer
mb
20260507025559 55 251 0.0 0.0 0.00 0.00 0.00 100 1023.2
20260507025056 55 251 0.0 0.0 0.00 0.00 0.00 100 1023.2
20260507024557 55 251 0.0 0.0 0.00 0.00 0.00 100 1023.2
20260507024056 55 251 0.0 0.0 0.00 0.00 0.00 100 1023.1
20260507023554 55 251 0.0 0.0 0.00 0.00 0.00 100 1023.2
20260507023343 55 251 0.0 0.0 0.00 0.00 0.00 100 1023.1
20260507022551 55 251 0.0 0.0 0.00 0.00 0.00 100 1023.2
20260507022052 55 301 0.0 0.0 0.00 0.00 0.00 100 1023.1
20260507021551 55 315 0.0 0.0 0.00 0.00 0.00 100 1023.1
20260507021051 55 315 0.0 0.9 0.00 0.00 0.00 100 1023.1
20260507020549 55 323 0.0 0.9 0.00 0.00 0.00 100 1023.1
20260507020053 55 309 0.0 0.9 0.00 0.00 0.00 100 1023.2
20260507015549 56 355 0.0 0.0 0.00 0.00 0.00 100 1023.2
20260507015327 56 5 0.0 2.6 0.00 0.00 0.00 100 1023.2
20260507014545 56 5 0.0 3.5 0.00 0.00 0.00 100 1023.2
20260507014045 56 231 0.0 3.5 0.00 0.00 0.00 100 1023.3
20260507013816 56 316 0.0 0.0 0.00 0.00 0.00 100 1023.2
20260507013040 56 316 0.0 0.0 0.00 0.00 0.00 100 1023.3
20260507012537 56 316 0.0 1.7 0.00 0.00 0.00 100 1023.3
20260507012037 56 317 0.0 1.7 0.00 0.00 0.00 100 1023.3
20260507011535 56 306 0.0 1.7 0.00 0.00 0.00 100 1023.3
20260507011036 56 306 0.0 1.7 0.00 0.00 0.00 100 1023.4
20260507010820 56 273 0.0 1.7 0.00 0.00 0.00 100 1023.4
20260507010041 56 242 0.0 1.7 0.00 0.00 0.00 100 1023.4
20260507005607 56 262 0.0 0.0 0.00 0.00 0.00 100 1023.4
20260507005551 56 257 0.0 1.7 0.00 0.00 0.00 100 1023.4
20260507004535 56 262 0.0 0.0 0.00 0.00 0.00 100 1023.4
20260507004035 55 262 0.0 0.0 0.00 0.00 0.00 100 1023.4
20260507003537 55 293 0.0 1.7 0.00 0.00 0.00 100 1023.4
20260507003318 55 293 0.0 1.7 0.00 0.00 0.00 100 1023.5
20260507002532 55 150 0.0 1.7 0.00 0.00 0.00 100 1023.4
20260507002032 55 238 0.0 0.9 0.00 0.00 0.00 100 1023.5
20260507001814 55 239 0.0 1.7 0.00 0.00 0.00 100 1023.5
20260507001030 55 355 0.9 2.6 0.00 0.00 0.00 100 1023.5
20260507000531 55 273 0.9 3.5 0.00 0.00 0.00 100 1023.5
20260507000032 56 300 0.9 4.3 0.00 0.00 0.00 100 1023.5
20260506235530 56 245 0.9 4.3 0.00 0.00 0.00 100 1023.4
20260506235031 56 223 0.9 4.3 0.00 0.00 0.00 100 1023.4
20260506234531 56 271 0.9 4.3 0.00 0.00 0.00 100 1023.5
20260506234038 56 329 0.9 2.6 0.00 0.00 0.00 100 1023.6
20260506233812 56 325 0.9 3.5 0.00 0.00 0.00 100 1023.6
20260506233036 56 219 0.0 3.5 0.00 0.00 0.00 100 1023.6
20260506232537 56 9 0.0 2.6 0.00 0.00 0.00 100 1023.7
20260506232031 56 329 0.9 3.5 0.00 0.00 0.00 100 1023.7
20260506231809 56 242 0.9 3.5 0.00 0.00 0.00 100 1023.7
20260506231032 56 238 0.9 2.6 0.00 0.00 0.00 100 1023.8
20260506230536 57 262 0.9 2.6 0.00 0.00 0.00 100 1023.7
20260506230040 57 169 0.9 2.6 0.00 0.00 0.00 100 1023.8
20260506225532 57 247 0.9 2.6 0.00 0.00 0.00 100 1023.6
20260506225037 57 264 0.0 2.6 0.00 0.00 0.00 100 1023.7
20260506224531 56 269 0.9 3.5 0.00 0.00 0.00 100 1023.7
20260506224316 56 15 0.9 3.5 0.00 0.00 0.00 100 1023.9
20260506223529 56 273 0.9 4.3 0.00 0.00 0.00 100 1024.0
20260506223312 56 320 0.9 4.3 0.00 0.00 0.00 100 1024.0
20260506222529 56 239 0.9 4.3 0.00 0.00 0.00 100 1024.0
20260506222028 56 241 0.9 4.3 0.00 0.00 0.00 100 1024.0
20260506221532 56 242 0.9 5.2 0.00 0.00 0.00 100 1023.9
20260506221310 57 206 0.9 5.2 0.00 0.00 0.00 100 1024.0
20260506220525 57 285 0.9 3.5 0.00 0.00 0.00 100 1023.9
20260506220029 57 213 0.9 3.5 0.00 0.00 0.00 100 1023.9
20260506215525 57 247 0.9 3.5 0.00 0.00 0.00 100 1023.9
20260506215025 57 266 0.9 3.5 0.00 0.00 0.00 100 1023.8
20260506214524 57 228 1.7 5.2 0.00 0.00 0.00 100 1023.8
20260506214022 57 273 0.9 5.2 0.00 0.00 0.00 100 1023.7
20260506213514 57 259 0.0 2.6 0.00 0.00 0.00 100 1023.7
20260506213014 57 239 0.9 2.6 0.00 0.00 0.00 100 1023.6
20260506212507 57 321 0.0 1.7 0.00 0.00 0.00 100 1023.7
20260506211955 57 273 0.0 2.6 0.00 0.00 0.00 100 1023.6
20260506211450 57 234 0.9 2.6 0.00 0.00 0.00 100 1023.7
20260506210942 57 276 0.9 4.3 0.00 0.00 0.00 100 1023.7
20260506210436 57 269 0.9 4.3 0.00 0.00 0.00 100 1023.7
20260506205930 57 273 0.9 5.2 0.00 0.00 0.00 100 1023.6
20260506205424 57 236 0.9 5.2 0.00 0.00 0.00 100 1023.7
20260506205208 57 280 0.9 5.2 0.00 0.00 0.00 100 1023.5
20260506204411 57 286 0.9 5.2 0.00 0.00 0.00 100 1023.5
20260506203906 57 243 0.9 3.5 0.00 0.00 0.00 100 1023.5
20260506203400 57 294 0.9 3.5 0.00 0.00 0.00 100 1023.5
20260506202854 57 296 0.9 3.5 0.00 0.00 0.00 100 1023.5
20260506202349 57 296 0.0 3.5 0.00 0.00 0.00 100 1023.5
20260506201843 56 316 0.0 2.6 0.00 0.00 0.00 100 1023.4
20260506201613 56 284 0.9 3.5 0.00 0.00 0.00 100 1023.5
20260506200830 56 254 0.9 3.5 0.00 0.00 0.00 100 1023.4
20260506200333 56 288 0.9 4.3 0.00 0.00 0.00 100 1023.5
20260506195819 56 228 0.9 4.3 0.00 0.00 0.00 100 1023.6
20260506195606 56 286 0.9 3.5 0.00 0.00 0.00 100 1023.7
20260506195046 56 244 0.9 3.5 0.00 0.00 0.00 100 1023.7
20260506194300 56 200 0.9 4.3 0.00 0.00 0.00 100 1023.7
20260506193755 56 235 1.7 4.3 0.00 0.00 0.00 100 1023.7
20260506193249 56 273 0.9 3.5 0.00 0.00 0.00 100 1023.5
20260506192742 57 35 0.9 3.5 0.00 0.00 0.00 100 1023.5
20260506192236 57 284 0.9 3.5 0.00 0.00 0.00 100 1023.5
20260506192010 56 12 0.9 3.5 0.00 0.00 0.00 100 1023.4
20260506191224 56 307 1.7 4.3 0.00 0.00 0.00 100 1023.5
20260506190720 56 28 1.7 4.3 0.00 0.00 0.00 100 1023.5
20260506190211 56 229 1.7 6.1 0.00 0.00 0.00 100 1023.5
20260506185708 56 265 1.7 6.1 0.00 0.00 0.00 100 1023.4
20260506185202 57 242 0.9 3.5 0.00 0.00 0.00 100 1023.5
20260506184654 57 292 0.9 4.3 0.00 0.00 0.00 100 1023.5
20260506184147 57 290 0.9 4.3 0.00 0.00 0.00 100 1023.4
20260506183642 57 300 0.9 3.5 0.00 0.00 0.00 100 1023.4
20260506183136 57 259 0.9 3.5 0.00 0.00 0.00 100 1023.3
20260506182629 57 312 0.9 3.5 0.00 0.00 0.00 100 1023.3
20260506182151 57 326 0.9 3.5 0.00 0.00 0.00 100 1023.1
20260506182141 57 296 0.9 3.5 0.00 0.00 0.00 100 1023.3
20260506181123 57 321 0.9 3.5 0.00 0.00 0.00 100 1023.0
20260506180840 57 268 0.9 3.5 0.00 0.00 0.00 100 1023.0
20260506175554 56 305 0.9 2.6 0.00 0.00 0.00 100 1022.8
20260506175058 56 355 0.9 3.5 0.00 0.00 0.00 100 1022.9
20260506174544 56 261 0.9 3.5 0.00 0.00 0.00 100 1022.7
20260506174035 56 344 0.9 3.5 0.00 0.00 0.00 100 1022.7
20260506173530 56 290 0.9 3.5 0.00 0.00 0.00 100 1022.8
20260506173255 56 269 0.9 2.6 0.00 0.00 0.00 100 1022.8
20260506172518 56 306 0.0 1.7 0.00 0.00 0.00 100 1022.7
20260506172015 56 304 0.0 0.9 0.00 0.00 0.00 100 1022.7
20260506171514 56 5 0.0 1.7 0.00 0.00 0.00 100 1022.8
20260506171014 56 9 0.9 3.5 0.00 0.00 0.00 100 1022.7
20260506170514 56 324 0.9 3.5 0.00 0.00 0.00 100 1022.5
20260506170023 56 292 0.9 3.5 0.00 0.00 0.00 100 1022.5
20260506165515 56 288 0.9 3.5 0.00 0.00 0.00 100 1022.7
20260506165028 56 310 0.0 3.5 0.00 0.00 0.00 100 1022.6
20260506164648 55 272 0.0 0.0 0.00 0.00 0.00 100 1022.5
20260506164644 55 272 0.0 0.0 0.00 0.00 0.00 100 1022.5
20260506164620 56 256 0.0 0.0 0.00 0.00 0.00 100 1022.6
20260506164049 56 273 0.0 0.0 0.00 0.00 0.00 100 1022.6
20260506162508 55 286 0.0 0.0 0.00 0.00 0.00 100 1022.5
20260506162009 55 319 0.0 0.0 0.00 0.00 0.00 100 1022.4
20260506161508 55 277 0.0 0.0 0.00 0.00 0.00 100 1022.5
20260506161007 55 261 0.0 0.0 0.00 0.00 0.00 100 1022.4
20260506160758 55 261 0.0 0.0 0.00 0.00 0.00 100 1022.5
20260506160006 55 261 0.0 0.0 0.00 0.00 0.00 100 1022.4
20260506155547 55 244 0.0 0.0 0.00 0.00 0.00 100 1022.5
20260506155521 55 261 0.0 0.0 0.00 0.00 0.00 100 1022.4
20260506154500 55 242 0.0 0.0 0.00 0.00 0.00 100 1022.3
20260506154000 55 242 0.0 0.0 0.00 0.00 0.00 100 1022.2
20260506153500 54 242 0.0 0.0 0.00 0.00 0.00 100 1022.2
20260506153000 54 300 0.0 0.0 0.00 0.00 0.00 100 1022.2
20260506152459 54 339 0.0 0.9 0.00 0.00 0.00 100 1022.0
20260506152000 54 339 0.0 0.9 0.00 0.00 0.00 100 1022.1
20260506151501 54 272 0.0 0.0 0.00 0.00 0.00 100 1021.9
20260506151000 54 272 0.0 0.9 0.00 0.00 0.00 100 1021.9
20260506150501 53 272 0.0 0.9 0.00 0.00 0.00 100 1021.9
20260506150001 53 272 0.0 0.0 0.00 0.00 0.00 100 1021.7
20260506145743 53 272 0.0 0.0 0.00 0.00 0.00 100 1021.7
20260506145001 53 272 0.0 0.0 0.00 0.00 0.00 100 1021.7
20260506144500 53 272 0.0 0.0 0.00 0.00 0.00 100 1021.9
20260506144000 53 272 0.0 0.0 0.00 0.00 0.00 100 1022.0
20260506143500 53 272 0.0 0.0 0.00 0.00 0.00 100 1022.0
20260506143005 53 272 0.0 0.0 0.00 0.00 0.00 100 1022.2
20260506142751 53 272 0.0 0.0 0.00 0.00 0.00 100 1022.0
20260506142005 53 272 0.0 0.0 0.00 0.00 0.00 100 1022.0
20260506141505 53 272 0.0 0.0 0.00 0.00 0.00 100 1022.0
20260506141233 53 272 0.0 0.0 0.00 0.00 0.00 100 1022.1
20260506140749 53 272 0.0 0.0 0.00 0.00 0.00 100 1022.2
20260506140007 53 272 0.0 0.0 0.00 0.00 0.00 100 1022.2
20260506135745 53 272 0.0 0.0 0.00 0.00 0.00 100 1022.1
20260506135003 53 272 0.0 0.0 0.00 0.00 0.00 100 1021.9
20260506134743 53 272 0.0 0.0 0.00 0.00 0.00 100 1021.7
20260506134001 53 272 0.0 0.0 0.00 0.00 0.00 100 1021.7
20260506133459 53 272 0.0 0.0 0.00 0.00 0.00 100 1021.8
20260506133000 53 272 0.0 0.0 0.00 0.00 0.00 100 1021.7
20260506132448 53 272 0.0 0.0 0.00 0.00 0.00 100 1021.7
20260506131943 53 272 0.0 0.0 0.00 0.00 0.00 100 1021.6
20260506131727 53 272 0.0 0.0 0.00 0.00 0.00 100 1021.6
20260506130930 53 272 0.0 0.0 0.00 0.00 0.00 100 1021.6
20260506130423 53 272 0.0 0.0 0.00 0.00 0.00 100 1021.6
20260506125917 53 272 0.0 0.0 0.00 0.00 0.00 100 1021.5
20260506125412 53 272 0.0 0.0 0.00 0.00 0.00 100 1021.4
20260506124905 53 272 0.0 0.0 0.00 0.00 0.00 100 1021.3
20260506124359 53 272 0.0 0.0 0.00 0.00 0.00 100 1021.2
20260506123857 53 272 0.0 0.0 0.00 0.00 0.00 100 1021.2
20260506123347 53 272 0.0 0.0 0.00 0.00 0.00 100 1021.2
20260506122850 53 272 0.0 0.0 0.00 0.00 0.00 100 1021.1
20260506122335 53 272 0.0 0.0 0.00 0.00 0.00 100 1021.1
20260506121831 53 272 0.0 0.0 0.00 0.00 0.00 100 1021.1
20260506121324 53 272 0.0 0.0 0.00 0.00 0.00 100 1021.0
20260506121313 53 272 0.0 0.0 0.00 0.00 0.00 100 1021.1
20260506120824 53 272 0.0 0.0 0.00 0.00 0.00 100 1021.1
20260506120311 53 272 0.0 0.0 0.00 0.00 0.00 100 1021.0
20260506115805 53 272 0.0 0.0 0.00 0.00 0.00 100 1021.0
20260506115259 53 272 0.0 0.0 0.00 0.00 0.00 100 1021.0
20260506114754 53 272 0.0 0.0 0.00 0.00 0.00 100 1020.9
20260506114552 53 272 0.0 0.0 0.00 0.00 0.00 100 1021.1
20260506114547 53 272 0.0 0.0 0.00 0.00 0.00 100 1021.0
20260506113238 53 272 0.0 0.0 0.00 0.00 0.00 100 1021.1
20260506112729 53 272 0.0 0.0 0.00 0.00 0.00 100 1021.1
20260506112223 53 272 0.0 0.0 0.00 0.00 0.00 100 1021.0
20260506112009 53 272 0.0 0.0 0.00 0.00 0.00 100 1021.0
20260506111211 53 272 0.0 0.0 0.00 0.00 0.00 100 1021.1
20260506110707 53 272 0.0 0.0 0.00 0.00 0.00 100 1021.1
20260506110200 53 272 0.0 0.0 0.00 0.00 0.00 100 1021.0
20260506105655 53 272 0.0 0.0 0.00 0.00 0.00 100 1021.0
20260506105147 53 272 0.0 0.0 0.00 0.00 0.00 100 1020.9
20260506104641 53 272 0.0 0.0 0.00 0.00 0.00 100 1020.9
20260506104137 53 272 0.0 0.0 0.00 0.00 0.00 100 1020.8
20260506103630 53 272 0.0 0.0 0.00 0.00 0.00 100 1020.9
20260506103124 53 272 0.0 0.0 0.00 0.00 0.00 100 1020.8
20260506102638 53 272 0.0 0.0 0.00 0.00 0.00 100 1020.6
20260506102629 53 272 0.0 0.0 0.00 0.00 0.00 100 1020.7
20260506101605 53 272 0.0 0.0 0.00 0.00 0.00 100 1020.5
20260506101100 53 272 0.0 0.0 0.00 0.00 0.00 100 1020.6
20260506100553 53 272 0.0 0.0 0.00 0.00 0.00 100 1020.6
20260506100048 53 272 0.0 0.0 0.00 0.00 0.00 100 1020.6
20260506095542 53 272 0.0 0.0 0.00 0.00 0.00 100 1020.6
20260506095036 53 272 0.0 0.0 0.00 0.00 0.00 100 1020.5
20260506094528 54 272 0.0 0.0 0.00 0.00 0.00 100 1020.4
20260506094023 54 272 0.0 0.0 0.00 0.00 0.00 100 1020.3
20260506093519 54 272 0.0 0.0 0.00 0.00 0.00 100 1020.3
20260506093013 54 272 0.0 0.0 0.00 0.00 0.00 100 1020.3
20260506092505 54 272 0.0 0.0 0.00 0.00 0.00 100 1020.4
20260506091959 54 272 0.0 0.0 0.00 0.00 0.00 100 1020.3
20260506091454 54 272 0.0 0.0 0.00 0.00 0.00 100 1020.3
20260506091229 54 272 0.0 0.0 0.00 0.00 0.00 100 1020.3
20260506090450 54 272 0.0 0.0 0.00 0.00 0.00 100 1020.2
20260506085934 54 272 0.0 0.0 0.00 0.00 0.00 100 1020.2
20260506085720 54 272 0.0 0.0 0.00 0.00 0.00 100 1020.2
20260506084925 54 272 0.0 0.0 0.00 0.00 0.00 100 1020.2
20260506084426 54 272 0.0 0.0 0.00 0.00 0.00 100 1020.2
20260506083913 54 272 0.0 0.0 0.00 0.00 0.00 100 1020.2
20260506083406 54 272 0.0 0.0 0.00 0.00 0.00 100 1020.2
20260506082905 54 272 0.0 0.0 0.00 0.00 0.00 100 1020.1
20260506082415 54 272 0.0 0.0 0.00 0.00 0.00 100 1020.2
20260506081904 54 272 0.0 0.0 0.00 0.00 0.00 100 1020.1
20260506081407 54 272 0.0 0.0 0.00 0.00 0.00 100 1019.9
20260506080901 54 272 0.0 0.0 0.00 0.00 0.00 100 1019.9
20260506080400 54 272 0.0 0.0 0.00 0.00 0.00 100 1019.9
20260506073347 54 275 0.0 0.0 0.00 0.00 0.00 100 1019.4
20260506072914 54 275 0.0 0.0 0.00 0.00 0.00 100 1019.2
20260506072859 54 275 0.0 0.0 0.00 0.00 0.00 100 1019.3
20260506071845 54 275 0.0 0.0 0.00 0.00 0.00 100 1019.2
20260506071343 54 275 0.0 0.0 0.00 0.00 0.00 100 1019.1
20260506071132 55 275 0.0 0.0 0.00 0.00 0.00 100 1019.0
20260506070623 55 275 0.0 0.0 0.00 0.00 0.00 100 1019.1
20260506062113 55 275 0.0 0.0 0.00 0.00 0.00 100 1019.0
20260506061302 55 275 0.0 0.0 0.00 0.00 0.00 100 1019.0
20260506060806 55 275 0.0 0.0 0.00 0.00 0.00 100 1019.0
20260506060756 55 275 0.0 0.0 0.00 0.00 0.00 100 1019.0
20260506051150 55 275 0.0 0.0 0.00 0.00 0.00 100 1019.0
20260506050645 55 275 0.0 0.0 0.00 0.00 0.00 100 1019.0
20260506050137 55 275 0.0 0.0 0.00 0.00 0.00 100 1019.0
20260506045127 55 275 0.0 0.9 0.00 0.00 0.00 100 1019.0
20260506044858 55 275 0.0 0.9 0.00 0.00 0.00 100 1018.9
20260506044115 55 277 0.0 0.9 0.00 0.00 0.00 100 1018.9
20260506043609 55 277 0.0 0.9 0.00 0.00 0.00 100 1018.9
20260506043105 55 277 0.0 0.0 0.00 0.00 0.00 100 1018.8
20260506042556 55 277 0.0 0.0 0.00 0.00 0.00 100 1018.8
20260506042050 55 277 0.0 0.0 0.00 0.00 0.00 100 1018.8
20260506041545 55 277 0.0 0.0 0.00 0.00 0.00 100 1018.7
20260506041037 55 277 0.0 0.0 0.00 0.00 0.00 100 1018.6
20260506040532 55 277 0.0 0.0 0.00 0.00 0.00 100 1018.7
20260506040026 55 277 0.0 0.0 0.00 0.00 0.00 100 1018.5
20260506035529 55 277 0.0 0.0 0.00 0.00 0.00 100 1018.5
20260506035014 56 277 0.0 0.0 0.00 0.00 0.00 100 1018.5
20260506034508 56 277 0.0 0.0 0.00 0.00 0.00 100 1018.4
20260506034002 56 278 0.0 0.0 0.00 0.00 0.00 100 1018.3
20260506033457 56 278 0.0 0.0 0.00 0.00 0.00 100 1018.2
20260506032950 56 278 0.0 0.0 0.00 0.00 0.00 100 1018.2
20260506032444 56 278 0.0 0.9 0.00 0.00 0.00 100 1018.2
20260506031938 56 278 0.0 0.9 0.00 0.00 0.00 100 1018.2
20260506031432 56 267 0.0 1.7 0.00 0.00 0.00 100 1018.1
20260506030927 56 266 0.0 1.7 0.00 0.00 0.00 100 1018.0
20260506030420 56 266 0.0 1.7 0.00 0.00 0.00 100 1017.9